Location: Bouillancy
(49.1149°N, 2.9308°E)
Time: 08:30:39
(UTC+00:00)

CZ-2C R/B - Pass Details

Date: 30 September 2020
Orbit: 785 x 870 km, 98.2° (Epoch: 29 October)

Event Time Altitude Azimuth Distance (km) Brightness Sun altitude
Rises 20:34:22 0° 8° (N) 3,451 6.2 -29.8°
Reaches altitude 10° 20:36:53 10° 1° (N) 2,518 5.5 -30.2°
Maximum altitude 20:41:59 37° 295° (WNW) 1,318 4.1 -30.8°
Drops below altitude 10° 20:47:06 10° 230° (SW) 2,514 5.3 -31.5°
Sets 20:49:37 0° 222° (SW) 3,445 5.9 -31.8°
